Location: Chippewa Lake
(41.0698°N, 81.9010°W)
Time: 22:08:07
(UTC+00:00)

SPOT 1/Viking Rocket - Pass Details

Date: 09 May 2021
Orbit: 776 x 794 km, 98.4° (Epoch: 16 June)

Event Time Altitude Azimuth Distance (km) Brightness Sun altitude
Exits shadow 02:18:39 30° 144° (SE) 1,397 4.3 -17.5°
Maximum altitude 02:21:12 63° 73° (ENE) 880 3.6 -17.8°
Drops below altitude 10° 02:26:20 10° 353° (N) 2,360 6.8 -18.5°
Sets 02:28:41 0° 351° (N) 3,290 7.7 -18.8°
